HST 1 20580U 90037B 25185.51425175 .00005005 00000-0 18394-3 0 9993 2 20580 28.4685 287.4552 0001700 289.3861 70.6550 15.25476147735334 ISS (ZARYA) 1 25544U 98067A 25186.18389497 .00006732 00000-0 12417-3 0 9997 2 25544 51.6345 217.8755 0002490 335.5645 24.5226 15.50380546517952 CXO 1 25867U 99040B 25187.94942826 .00000511 00000-0 00000-0 0 9994 2 25867 49.8968 128.8299 8389429 309.7726 0.3708 0.37803286 16013